Tracking 31030 objects as of 17-Jul-2025
HD Live streaming from Space Station
objects crossing your sky now

DELTA 1 DEB

Track DELTA 1 DEB now!
10-day predictions


NORAD ID: 7021
Int'l Code: 1973-086M
Perigee: 1,390.2 km
Apogee: 1,699.6 km
Inclination: 101.7 °
Period: 116.8 minutes
Semi major axis: 7915 km
RCS: 0.1794 m2 (medium)
Launch date: November 6, 1973
Source: United States (US)
Launch site: AIR FORCE WESTERN TEST RANGE (AFWTR)

Note: This is SATELLITE DEBRIS
Your satellite tracking list
Your tracking list is empty




NASA's NSSDC Master Catalog

Two Line Element Set (TLE):
1 07021U 73086M   25197.73199334  .00000379  00000-0  32377-2 0  9990
2 07021 101.6940 249.3753 0195407 128.7209 346.9112 12.32685573307942
Source of the keplerian elements: AFSPC